EW9996 Weather Reports


time (UTC)temp
C
wind
direction
speed
KPH
gust
KPH
rain 1hr
cm
rain 24hr
cm
rain mn
cm
humidity
%
barometer
mb
20260503174547 12 0 0.0 1.6 0.00 0.00 0.00 40 1013.9
20260503173113 12 0 0.0 0.0 0.00 0.00 0.00 42 1014.1
20260503171552 12 0 0.0 0.0 0.00 0.00 0.00 41 1014.1
20260503120109 2 0 0.0 0.0 0.00 0.00 0.00 78 1015.2
20260503081549 1 0 0.0 0.0 0.00 0.00 0.00 77 1013.9
20260503071551 2 0 0.0 0.0 0.00 0.00 0.00 74 1013.6
20260503070104 2 0 0.0 0.0 0.00 0.00 0.00 74 1013.4
20260503054607 2 0 0.0 0.0 0.00 0.00 0.00 74 1013.5
20260503053053 3 0 0.0 0.0 0.00 0.00 0.00 72 1013.7
20260503051554 3 0 0.0 0.0 0.00 0.00 0.00 71 1013.6
20260503050054 3 0 0.0 0.0 0.00 0.00 0.00 69 1013.7
20260503044549 4 0 0.0 0.0 0.00 0.03 0.00 66 1013.8
20260503043047 4 0 0.0 0.0 0.00 0.03 0.00 66 1013.7
20260503041603 4 0 0.0 0.0 0.00 0.03 0.00 68 1013.8
20260503040059 5 0 0.0 0.0 0.00 0.03 0.00 67 1013.7
20260503034606 5 0 0.0 0.0 0.00 0.03 0.03 69 1013.8
20260503033055 5 0 0.0 0.0 0.00 0.03 0.03 69 1013.8
20260503031550 5 0 0.0 0.0 0.00 0.03 0.03 69 1014.0
20260503030054 5 0 0.0 0.0 0.00 0.03 0.03 71 1014.0
20260503024551 5 0 0.0 0.0 0.00 0.03 0.03 71 1014.2
20260503023051 5 0 0.0 0.0 0.00 0.03 0.03 70 1014.2
20260503021550 5 0 0.0 0.0 0.00 0.03 0.03 72 1014.2
20260503020046 5 0 0.0 0.0 0.00 0.03 0.03 74 1014.2
20260503014549 5 0 0.0 0.0 0.00 0.03 0.03 73 1014.0
20260503013051 5 0 0.0 0.0 0.00 0.03 0.03 73 1013.9
20260503011548 5 0 0.0 0.0 0.00 0.03 0.03 73 1013.8
20260503010048 5 0 0.0 0.0 0.00 0.03 0.03 72 1013.7
20260503004611 5 0 0.0 0.0 0.00 0.03 0.03 72 1013.6
20260503003047 5 0 0.0 0.0 0.00 0.03 0.03 71 1013.4
20260503001550 6 0 0.0 0.0 0.00 0.03 0.03 69 1013.3
20260503000053 6 0 0.0 0.0 0.00 0.03 0.03 67 1013.3
20260502234548 6 0 0.0 0.0 0.00 0.03 0.03 67 1013.0
20260502233048 6 0 0.0 0.0 0.00 0.03 0.03 69 1013.0
20260502231556 6 0 0.0 0.0 0.00 0.03 0.03 70 1012.9
20260502230055 6 0 0.0 0.0 0.00 0.03 0.03 67 1013.0
20260502224549 7 0 0.0 0.0 0.00 0.03 0.03 68 1012.9
20260502223051 7 0 0.0 0.0 0.00 0.03 0.03 67 1012.9
20260502221547 7 0 0.0 0.0 0.00 0.03 0.03 66 1012.6
20260502214548 7 0 0.0 0.0 0.00 0.03 0.03 68 1012.6
20260502213052 7 0 0.0 0.0 0.00 0.03 0.03 66 1012.5
20260502211553 7 0 0.0 0.0 0.00 0.03 0.03 65 1012.3
20260502210058 8 0 0.0 0.0 0.00 0.03 0.03 60 1012.0
20260502204548 8 0 0.0 0.0 0.00 0.03 0.03 58 1012.1
20260502203052 9 0 0.0 0.0 0.00 0.03 0.03 56 1011.9
20260502201552 9 0 0.0 0.0 0.00 0.03 0.03 57 1012.1
20260502200051 8 0 0.0 0.0 0.00 0.03 0.03 58 1012.3
20260502194545 8 0 0.0 0.0 0.00 0.03 0.03 64 1012.6
20260502193100 7 0 0.0 0.0 0.00 0.03 0.03 65 1012.9
20260502191552 8 0 0.0 0.0 0.00 0.03 0.03 62 1013.1
20260502190104 9 0 0.0 0.0 0.00 0.03 0.03 57 1012.8
20260502184556 8 0 0.0 0.0 0.00 0.03 0.03 60 1013.0
20260502183047 8 0 0.0 0.0 0.00 0.03 0.03 61 1013.1
20260502181549 8 0 0.0 0.0 0.00 0.03 0.03 59 1013.1
20260502180114 9 0 0.0 0.0 0.00 0.03 0.03 57 1012.8